Flag for Brazil Weather past 2 weeks in Recife, Pernambuco, Brazil

Now
70 °F

Passing clouds.


Feels Like: 70 °F
Forecast: 72 / 81 °F
Wind: 2 mph from Northwest

Location: Recife Aeroporto

Current Time: Sep 2, 2014 at 6:21:59 AM

Latest Report: Sep 2, 2014 at 6:00 AM


Visibility: N/A

Pressure: 29.98 "Hg

Humidity: 100%

Dew point: 70 °F

Location of RecifeLocation

Historic Weather in Recife — Graph

°F

Recife temperature yesterday

Maximum temperature yesterday: 77 °F (at 2:00 PM)
Minimum temperature yesterday: 70 °F (at 7:00 AM)
Average temperature yesterday: 73 °F

Past Weeks' High & Low Weather Summary

 TemperatureHumidityPressure
High82 °F (Aug 22, 1:00 PM)100% (Aug 20, 6:00 AM)30.09 "Hg (Aug 20, 6:00 AM)
Low68 °F (Aug 19, 6:00 AM)62% (Aug 19, 2:00 PM)29.95 "Hg (Aug 18, 3:00 PM)
Average76 °F81%30.01 "Hg
* Reported Aug 18 5:00 AM — Sep 2 5:00 AM, Recife, Weather by CustomWeather, © 2014

Note: Actual official high and low records may vary slightly from our data, if they occured in-between our weather recording intervals... More about our weather records

Advertising

Recife weather history for previous 24 hours

 ConditionsComfort  
Time TempWeatherWind HumidityBarometerVisibility
5:00 AM
Sep 2
72 °FPassing clouds.2 mph94%29.98 "HgN/A
4:00 AM70 °FPassing clouds.No wind100%29.95 "HgN/A
3:00 AM72 °FPassing clouds.2 mph94%29.95 "HgN/A
2:00 AM70 °FPassing clouds.No wind100%29.95 "HgN/A
1:00 AM72 °FPassing clouds.No wind94%29.98 "HgN/A
12:00 AM72 °FPassing clouds.3 mph94%30.01 "HgN/A
11:00 PM
Sep 1
72 °FPassing clouds.2 mph94%30.01 "HgN/A
10:00 PM72 °FPassing clouds.3 mph94%30.04 "HgN/A
9:00 PM72 °FPassing clouds.2 mph94%30.01 "HgN/A
8:00 PM72 °FPassing clouds.2 mph94%30.01 "HgN/A
7:00 PM73 °FPassing clouds.5 mph89%30.01 "HgN/A
6:00 PM73 °FPassing clouds.5 mph89%30.01 "HgN/A
5:00 PM75 °FPassing clouds.7 mph83%29.98 "HgN/A
4:00 PM75 °FScattered clouds.9 mph83%29.98 "HgN/A
3:00 PM75 °FScattered clouds.13 mph89%29.98 "HgN/A
2:00 PM77 °FPartly sunny.7 mph83%30.01 "HgN/A
1:00 PM72 °FLight rain. Mostly cloudy.9 mph100%30.04 "Hg2 mi
12:00 PM73 °FLight rain. Mostly cloudy.5 mph100%30.04 "Hg2 mi
11:00 AM75 °FLight rain. Partly sunny.7 mph89%30.07 "Hg3 mi
10:00 AM75 °FScattered showers. Partly sunny.7 mph89%30.07 "HgN/A
9:00 AM73 °FScattered showers. Cloudy.7 mph94%30.07 "HgN/A
8:00 AM70 °FLight rain. Mostly cloudy.8 mph100%30.07 "Hg2 mi
7:00 AM70 °FLight rain. Fog.5 mph100%N/A2 mi
6:00 AM72 °FLight rain. Broken clouds.6 mph94%30.04 "Hg2 mi
Weather by CustomWeather, © 2014

See weather overviewHow to use our weather pages